Location: Unspecified
(48.2082°N, 0.0000°E)
Time: 21:21:41
(UTC+00:00)

Transit 4A - Pass Details

Date: 18 June 2019
Orbit: 862 x 982 km, 66.8° (Epoch: 16 July)

Event Time Altitude Azimuth Distance (km) Brightness Sun altitude
Rises 10:08:47 0° 232° (SW) 3,621 10.9 56.7°
Reaches altitude 10° 10:11:23 10° 238° (WSW) 2,693 10.3 57.0°
Maximum altitude 10:17:31 51° 313° (NW) 1,214 8.9 57.8°
Drops below altitude 10° 10:23:47 10° 29° (NNE) 2,746 10.4 58.6°
Sets 10:26:28 0° 35° (NE) 3,697 11.0 58.9°
